Location: Melara
(45.0500°N, 11.1833°E)
Time: 11:58:40
(UTC+00:00)

UKube-1 - Pass Details

Date: 03 June 2024
Orbit: 582 x 590 km, 98.3° (Epoch: 16 June)

Event Time Altitude Azimuth Distance (km) Brightness Sun altitude
Rises 23:04:02 0° 37° (NE) 2,813 ? -22.5°
Maximum altitude 23:08:54 10° 89° (E) 1,905 ? -22.5°
Drops below altitude 10° 23:08:55 10° 89° (E) 1,905 ? -22.5°
Enters shadow 23:09:23 10° 95° (E) 1,915 ? -22.5°
